Regional Weather Roundup
Issued by NWS Upton, NY

Current Version | Previous Version | Graphics & Text | Print | Product List | Glossary Off
Versions: 1 2 3 4 5 6 7 8 9 10 11 12 13 14 15 16 17 18 19 20 21 22 23 24 25 26 27 28 29 30 31 32 33 34 35 36 37 38 39 40 41 42 43 44 45 46 47 48 49 50

000
ASUS41 KOKX 200205
RWROKX
REGIONAL WEATHER ROUNDUP
NATIONAL WEATHER SERVICE NEW YORK NY
1000 PM EDT SUN OCT 19 2014

NOTE: "FAIR" INDICATES FEW OR NO CLOUDS BELOW 12,000 FEET WITH NO
SIGNIFICANT WEATHER AND/OR OBSTRUCTIONS TO VISIBILITY.

NYZ071-072-176-178-NJZ106-104-200300-
NEW YORK CITY METRO AREA


CITY           SKY/WX    TMP DP  RH WIND       PRES   REMARKS
CENTRAL PARK   CLEAR     46  26  45 VRB6      30.08S
LAGUARDIA APRT PTCLDY    46  29  51 NW14      30.05S
KENNEDY INTL   PTCLDY    46  26  45 NW13G23   30.06S
NEWARK/LIBERTY PTCLDY    45  27  49 NW6       30.07S
BRNX BOT. GARD   N/A    N/A N/A N/A NW6       30.06F
TETERBORO      CLEAR     43  26  51 NW6       30.06R
$$

NYZ177-179-078>081-200300-
LONG ISLAND NEW YORK

CITY           SKY/WX    TMP DP  RH WIND       PRES   REMARKS
FARMINGDALE    CLEAR     45  28  51 NW8       30.05R
ISLIP          PTCLDY    45  28  51 NW13      30.02R
SHIRLEY        NOT AVBL
WESTHAMPTON    CLEAR     45  27  49 NW12      30.03R
MONTAUK POINT    N/A     47  31  53 NW18G28   30.00R
$$

NYZ052-065-067-200300-
HUDSON VALLEY

CITY           SKY/WX    TMP DP  RH WIND       PRES   REMARKS
WHITE PLAINS   CLEAR     42  26  53 NW9       30.03S
NEWBURGH       CLEAR     39  27  60 N6        30.06R WCI  35
MONTGOMERY     CLEAR     34  28  79 CALM      30.05S
POUGHKEEPSIE   CLEAR     41  26  55 NW5       30.05S
ALBANY         PTCLDY    40  24  53 W5        30.04S
$$

NJZ001-105-106-008-010-013-015-019>022-104-200300-
NEW JERSEY

CITY           SKY/WX    TMP DP  RH WIND       PRES   REMARKS
NEWARK/LIBERTY PTCLDY    45  27  49 NW6       30.07S
TETERBORO      CLEAR     43  26  51 NW6       30.06R
CALDWELL       CLEAR     42  25  50 CALM      30.07S
MORRISTOWN     CLEAR     41  28  60 N6        30.07S
SOMERVILLE     CLEAR     35  31  85 CALM      30.06R
SUSSEX         CLEAR     42  26  53 CALM      30.06S
ANDOVER          N/A     40  26  57 N3        30.07R
TRENTON        PTCLDY    43  27  53 NW3       30.06S
MILLVILLE      PTCLDY    37  34  89 CALM      30.08R
ATLANTIC CITY  PTCLDY    41  32  70 CALM      30.07S
WRIGHTSTOWN    PTCLDY    42  31  64 NW5       30.05S
TOMS RIVER     PTCLDY    36  30  80 CALM      30.07S
BELMAR         CLEAR     41  27  56 CALM      30.06S
$$

PAZ047>061-062-071-200300-
EASTERN PENNSYLVANIA

CITY           SKY/WX    TMP DP  RH WIND       PRES   REMARKS
PHILADELPHIA   CLEAR     51  28  41 NW3       30.08S
ALLENTOWN      CLEAR     42  26  53 CALM      30.08R
SCRANTON       MOCLDY    36  28  73 SE3       30.06S
$$

CTZ002-004>006-009-010-012-RIZ004-006-007-MAZ004-011-015-200300-
SOUTHERN NEW ENGLAND
 IN CT

CITY           SKY/WX    TMP DP  RH WIND       PRES   REMARKS
BRADLEY INTL   CLEAR     41  26  55 W9        30.00R
HARTFORD       CLEAR     42  26  53 W9        30.02R
DANBURY        CLEAR     39  25  57 NW5       30.04R
WTRBRY/OXFORD  CLEAR     39  21  48 NW5G18    30.03R
BRIDGEPORT     CLEAR     42  29  59 NW3       30.04R
MERIDEN        CLEAR     42  24  49 NW7       30.03R
NEW HAVEN      CLEAR     45  27  49 N9        30.03R
CHESTER        FAIR      41  28  60 NW14G21   30.00S
GROTON         CLEAR     41  28  60 NW10      29.99R
WILLIMANTIC    CLEAR     42  26  53 NW10G17   29.99R

 IN RI

CITY           SKY/WX    TMP DP  RH WIND       PRES   REMARKS
PROVIDENCE     PTCLDY    44  28  53 W16       29.96R
BLOCK ISLAND   CLEAR     45  27  49 NW12G26   29.97R
WESTERLY       CLEAR     43  27  53 NW5       29.99R

 IN MA

CITY           SKY/WX    TMP DP  RH WIND       PRES   REMARKS
BOSTON         CLOUDY    45  29  53 NW14      29.93R
WORCESTER      CLEAR     39  24  55 NW14G24   29.94R WCI  31
WESTFIELD      CLEAR     39  25  57 N3        30.00R
PROVINCETOWN   PTCLDY    48  30  49 NW18G28   29.91R
NANTUCKET      MOCLDY    49  25  39 NW17G28   29.91R
$$

ANZ330-335-338-340-345-350-353-355-200300-
COASTAL MARINE OBSERVATIONS


STATION/POSITION TIME  SKY/WX   TEMP    WIND        PRES    VSBY  WAVE
                                AIR SEA DIR/SP/G                  HT/PER
                 (UTC)          (F)     (DEG/KT/KT) (MB)    (MI)  (FT/S)
NY HARB ENTRANCE NOT AVBL
4S FIRE IS       0200               64                N/A           3/13
20S FIRE ISLAND  0200            50 64  320/ 19/ 23 1016.8          4/ 5
23SW MTP         0200                                 N/A           5/ 5
HUDSON CANYON    0200            53 66  320/ 21/ 27 1015.8          8/ 6
EXECUTION ROCKS  0200            48 64  300/ 16/ 21   N/A
WESTERN LI SOUND 0200            48     330/ 12/ 17   N/A           1/ 2
CENTRAL LI SOUND 0100            47 65  310/ 23/ 29   N/A           3/ 4
EASTERN LI SOUND 0100            48 63  310/ 17/ 27   N/A
ROBBINS REEF     0100            46     340/ 12/ 16 1016.8
$$


>>>>>>>>>>>>>>>>>>>>>>>>>>>> KEY <<<<<<<<<<<<<<<<<<<<<<<<<<<
>                                                          <
>     SKY/WX - SKY CONDITION/PRESENT WEATHER               <
>     TMP    - TEMPERATURE IN FAHRENHEIT                   <
>     DP     - DEWPOINT IN FAHRENHEIT                      <
>     RH     - RELATIVE HUMIDITY IN PERCENT                <
>     WIND   - DIRECTION AND SPEED IN MPH                  <
>     PRES   - MEAN SEA LEVEL PRESSURE IN INCHES OF HG     <
>     WCI    - WIND CHILL INDEX                            <
>     VSB    - VISIBILITY IN MILES                         <
>     HX     - HEAT INDEX                                  <
>     TC     - TEMPERATURE IN CELSIUS                      <
>     VRB    - VARIABLE WIND DIRECTION                     <
>                                                          <
>>>>>>>>>>>>>>>>>>>>>>>>>>>> KEY <<<<<<<<<<<<<<<<<<<<<<<<<<<





USA.gov is the U.S. government's official web portal to all federal, state and local government web resources and services.